UAL742 KLAX-KSFO

Flight info

Callsign UAL742
Flight time 0h 54m
Altitude 32000
Route SUMMR2 STOKD SERFR SERFR4
Aircraft B77W/H-SDE1E2E3FGHIJ2J3J4J5M1RWXY/LB1D1

Departure

Time 2026-04-23 03:52
Airport Los Angeles International Airport (KLAX)

Arrival

Time 2026-04-23 04:46
Airport San Francisco International Airport (KSFO)
Time Latitude Longitude Altitude Speed Heading
2026-04-23 03:32 33.94100 -118.39884 98 ft 0 kts 307°
2026-04-23 03:32 33.94103 -118.39888 98 ft 0 kts 307°
2026-04-23 03:32 33.94106 -118.39893 98 ft 0 kts 307°
2026-04-23 03:43 33.94105 -118.39892 98 ft 1 kts 307°
2026-04-23 03:43 33.94094 -118.39874 99 ft 3 kts 305°
2026-04-23 03:43 33.94082 -118.39854 99 ft 3 kts 301°
2026-04-23 03:43 33.94072 -118.39832 98 ft 3 kts 295°
2026-04-23 03:44 33.94064 -118.39810 98 ft 3 kts 287°
2026-04-23 03:44 33.94060 -118.39787 97 ft 2 kts 273°
2026-04-23 03:44 33.94059 -118.39781 97 ft 0 kts 270°
2026-04-23 03:46 33.94059 -118.39783 97 ft 1 kts 270°
2026-04-23 03:46 33.94057 -118.39799 98 ft 3 kts 254°
2026-04-23 03:46 33.94024 -118.39821 100 ft 7 kts 182°
2026-04-23 03:47 33.93976 -118.39817 100 ft 7 kts 175°
2026-04-23 03:47 33.93913 -118.39767 102 ft 14 kts 109°
2026-04-23 03:47 33.93916 -118.39653 100 ft 14 kts 84°
2026-04-23 03:47 33.93926 -118.39536 102 ft 14 kts 83°
2026-04-23 03:48 33.93939 -118.39418 102 ft 14 kts 82°
2026-04-23 03:48 33.93952 -118.39292 99 ft 16 kts 83°
2026-04-23 03:48 33.93964 -118.39162 101 ft 16 kts 84°
2026-04-23 03:48 33.93975 -118.39029 99 ft 16 kts 83°
2026-04-23 03:49 33.93988 -118.38897 99 ft 16 kts 83°
2026-04-23 03:49 33.94001 -118.38765 100 ft 16 kts 83°
2026-04-23 03:49 33.94016 -118.38633 101 ft 16 kts 81°
2026-04-23 03:49 33.94033 -118.38501 101 ft 16 kts 82°
2026-04-23 03:50 33.94042 -118.38411 102 ft 3 kts 83°
2026-04-23 03:50 33.94043 -118.38409 102 ft 0 kts 83°
2026-04-23 03:50 33.94044 -118.38394 102 ft 7 kts 83°
2026-04-23 03:50 33.94031 -118.38335 102 ft 8 kts 139°
2026-04-23 03:51 33.93977 -118.38324 105 ft 8 kts 175°
2026-04-23 03:51 33.93948 -118.38370 105 ft 8 kts 263°
2026-04-23 03:51 33.93935 -118.38511 106 ft 44 kts 263°
2026-04-23 03:51 33.93841 -118.39412 116 ft 169 kts 262°
2026-04-23 03:52 33.93666 -118.40988 1316 ft 201 kts 263°
2026-04-23 03:52 33.93481 -118.42861 2709 ft 244 kts 266°
2026-04-23 03:52 33.93301 -118.44848 4845 ft 233 kts 265°
2026-04-23 03:52 33.93123 -118.46814 5936 ft 242 kts 266°
2026-04-23 03:53 33.92947 -118.48897 6780 ft 255 kts 266°
2026-04-23 03:53 33.92807 -118.51089 7244 ft 268 kts 267°
2026-04-23 03:53 33.92666 -118.53213 8622 ft 243 kts 267°
2026-04-23 03:53 33.92502 -118.55163 9985 ft 240 kts 266°
2026-04-23 03:54 33.92294 -118.57213 10852 ft 245 kts 266°
2026-04-23 03:54 33.92101 -118.59247 11699 ft 255 kts 267°
2026-04-23 03:54 33.91903 -118.61507 11994 ft 287 kts 267°
2026-04-23 03:54 33.91727 -118.63966 12742 ft 299 kts 270°
2026-04-23 03:55 33.91699 -118.66491 13816 ft 303 kts 272°
2026-04-23 03:55 33.91712 -118.69038 14860 ft 305 kts 272°
2026-04-23 03:55 33.91725 -118.71611 15923 ft 308 kts 271°
2026-04-23 03:55 33.91729 -118.74196 17030 ft 310 kts 271°
2026-04-23 03:56 33.91725 -118.76810 18068 ft 314 kts 270°
2026-04-23 03:56 33.91715 -118.79464 18995 ft 319 kts 270°
2026-04-23 03:56 33.91702 -118.82116 19897 ft 322 kts 270°
2026-04-23 03:56 33.91710 -118.84832 20830 ft 325 kts 272°
2026-04-23 03:57 33.91792 -118.87569 21751 ft 329 kts 273°
2026-04-23 03:57 33.91892 -118.90339 22659 ft 333 kts 273°
2026-04-23 03:57 33.91987 -118.93144 23559 ft 337 kts 273°
2026-04-23 03:57 33.92074 -118.95988 24318 ft 341 kts 272°
2026-04-23 03:58 33.92160 -118.98863 25048 ft 344 kts 273°
2026-04-23 03:58 33.92555 -119.01713 25651 ft 351 kts 285°
2026-04-23 03:58 33.93559 -119.04422 26321 ft 359 kts 297°
2026-04-23 03:58 33.94903 -119.06989 27031 ft 364 kts 298°
2026-04-23 03:59 33.96283 -119.09563 27723 ft 368 kts 298°
2026-04-23 03:59 33.97651 -119.12157 28378 ft 373 kts 297°
2026-04-23 03:59 33.99033 -119.14820 29024 ft 378 kts 297°
2026-04-23 03:59 34.00452 -119.17505 29659 ft 383 kts 301°
2026-04-23 04:00 34.02300 -119.19901 30227 ft 399 kts 315°
2026-04-23 04:00 34.04570 -119.21876 30772 ft 404 kts 317°
2026-04-23 04:00 34.06886 -119.23812 31361 ft 406 kts 317°
2026-04-23 04:00 34.09210 -119.25759 31932 ft 407 kts 317°
2026-04-23 04:01 34.11539 -119.27727 32471 ft 409 kts 316°
2026-04-23 04:01 34.13872 -119.29715 32962 ft 411 kts 316°
2026-04-23 04:01 34.16212 -119.31721 33430 ft 414 kts 316°
2026-04-23 04:01 34.18571 -119.33752 33881 ft 416 kts 316°
2026-04-23 04:02 34.20923 -119.35780 34325 ft 418 kts 315°
2026-04-23 04:02 34.23273 -119.37810 34642 ft 422 kts 315°
2026-04-23 04:02 34.25669 -119.39881 34949 ft 424 kts 315°
2026-04-23 04:02 34.28077 -119.41961 35299 ft 425 kts 315°
2026-04-23 04:03 34.30486 -119.44044 35646 ft 426 kts 315°
2026-04-23 04:03 34.32901 -119.46134 35923 ft 428 kts 315°
2026-04-23 04:03 34.37796 -119.50378 36041 ft 434 kts 315°
2026-04-23 04:04 34.42540 -119.54725 36071 ft 415 kts 308°
2026-04-23 04:04 34.46566 -119.59661 36095 ft 411 kts 305°
2026-04-23 04:05 34.50506 -119.64680 36093 ft 410 kts 305°
2026-04-23 04:05 34.54458 -119.69644 36103 ft 413 kts 306°
2026-04-23 04:06 34.58486 -119.74642 36111 ft 415 kts 306°
2026-04-23 04:06 34.62551 -119.79664 36118 ft 417 kts 306°
2026-04-23 04:07 34.66632 -119.84705 36117 ft 418 kts 306°
2026-04-23 04:07 34.70701 -119.89745 36121 ft 417 kts 306°
2026-04-23 04:08 34.74763 -119.94787 36167 ft 417 kts 306°
2026-04-23 04:08 34.78795 -119.99798 36139 ft 417 kts 306°
2026-04-23 04:09 34.82844 -120.04837 36155 ft 416 kts 306°
2026-04-23 04:09 34.86890 -120.09877 36162 ft 416 kts 306°
2026-04-23 04:10 34.90933 -120.14927 36196 ft 416 kts 306°
2026-04-23 04:10 34.94952 -120.19957 36179 ft 417 kts 306°
2026-04-23 04:11 34.98999 -120.25017 36184 ft 416 kts 306°
2026-04-23 04:11 35.03039 -120.30079 36168 ft 416 kts 306°
2026-04-23 04:12 35.07064 -120.35144 36205 ft 416 kts 306°
2026-04-23 04:12 35.11188 -120.40130 36171 ft 419 kts 309°
2026-04-23 04:13 35.15483 -120.44889 36181 ft 420 kts 310°
2026-04-23 04:13 35.19811 -120.49659 36157 ft 418 kts 309°
2026-04-23 04:14 35.24079 -120.54453 36228 ft 416 kts 309°
2026-04-23 04:14 35.28359 -120.59267 36187 ft 419 kts 309°
2026-04-23 04:15 35.32666 -120.64124 36176 ft 421 kts 309°
2026-04-23 04:16 35.39097 -120.71378 36183 ft 421 kts 309°
2026-04-23 04:16 35.43404 -120.76249 36179 ft 420 kts 309°
2026-04-23 04:17 35.47686 -120.81099 36205 ft 418 kts 309°
2026-04-23 04:17 35.52201 -120.85650 36205 ft 422 kts 315°
2026-04-23 04:18 35.56936 -120.89924 36243 ft 421 kts 315°
2026-04-23 04:18 35.61649 -120.94209 36199 ft 420 kts 314°
2026-04-23 04:19 35.66305 -120.98516 36189 ft 418 kts 314°
2026-04-23 04:19 35.70914 -121.02812 36185 ft 418 kts 314°
2026-04-23 04:20 35.75551 -121.07146 36213 ft 419 kts 314°
2026-04-23 04:20 35.80194 -121.11489 36202 ft 419 kts 314°
2026-04-23 04:21 35.84841 -121.15840 36198 ft 416 kts 314°
2026-04-23 04:21 35.89372 -121.20078 35799 ft 401 kts 314°
2026-04-23 04:21 35.91579 -121.22150 35407 ft 397 kts 314°
2026-04-23 04:22 35.93767 -121.24207 34915 ft 394 kts 314°
2026-04-23 04:22 35.95935 -121.26249 34422 ft 391 kts 314°
2026-04-23 04:22 35.98060 -121.28252 33917 ft 388 kts 314°
2026-04-23 04:22 36.00226 -121.30293 33378 ft 384 kts 314°
2026-04-23 04:23 36.02316 -121.32263 32880 ft 381 kts 314°
2026-04-23 04:23 36.04411 -121.34238 32404 ft 377 kts 314°
2026-04-23 04:23 36.06489 -121.36199 31936 ft 374 kts 314°
2026-04-23 04:23 36.08626 -121.38051 31490 ft 374 kts 318°
2026-04-23 04:24 36.10823 -121.39771 31036 ft 373 kts 319°
2026-04-23 04:24 36.13043 -121.41455 30577 ft 371 kts 320°
2026-04-23 04:24 36.14497 -121.42556 30283 ft 370 kts 319°
2026-04-23 04:24 36.16684 -121.44223 29720 ft 368 kts 319°
2026-04-23 04:25 36.18850 -121.45892 29251 ft 364 kts 319°
2026-04-23 04:25 36.21684 -121.48087 28626 ft 361 kts 319°
2026-04-23 04:25 36.23118 -121.49202 28318 ft 359 kts 319°
2026-04-23 04:25 36.25218 -121.50846 27866 ft 354 kts 319°
2026-04-23 04:26 36.27262 -121.52446 27407 ft 350 kts 320°
2026-04-23 04:26 36.29317 -121.54045 26997 ft 347 kts 320°
2026-04-23 04:26 36.31357 -121.55637 26563 ft 345 kts 320°
2026-04-23 04:26 36.33376 -121.57213 26139 ft 342 kts 321°
2026-04-23 04:27 36.35377 -121.58788 25709 ft 340 kts 320°
2026-04-23 04:27 36.37371 -121.60358 25296 ft 338 kts 320°
2026-04-23 04:27 36.39356 -121.61916 24882 ft 337 kts 321°
2026-04-23 04:28 36.43313 -121.65025 24056 ft 336 kts 321°
2026-04-23 04:28 36.45290 -121.66578 23563 ft 336 kts 321°
2026-04-23 04:28 36.47261 -121.68127 23102 ft 335 kts 322°
2026-04-23 04:28 36.49226 -121.69672 22663 ft 333 kts 322°
2026-04-23 04:29 36.51190 -121.71220 22244 ft 332 kts 322°
2026-04-23 04:29 36.53107 -121.72734 21834 ft 330 kts 322°
2026-04-23 04:29 36.55044 -121.74266 21413 ft 328 kts 322°
2026-04-23 04:29 36.56964 -121.75785 21007 ft 326 kts 322°
2026-04-23 04:30 36.58881 -121.77302 20591 ft 326 kts 322°
2026-04-23 04:30 36.60791 -121.78815 20199 ft 325 kts 323°
2026-04-23 04:30 36.62697 -121.80325 19780 ft 324 kts 323°
2026-04-23 04:30 36.64602 -121.81836 19377 ft 324 kts 323°
2026-04-23 04:31 36.66504 -121.83345 18967 ft 324 kts 323°
2026-04-23 04:31 36.68406 -121.84855 18554 ft 324 kts 323°
2026-04-23 04:31 36.70310 -121.86367 18091 ft 324 kts 323°
2026-04-23 04:31 36.72210 -121.87876 17658 ft 324 kts 324°
2026-04-23 04:32 36.74151 -121.89329 17064 ft 329 kts 331°
2026-04-23 04:32 36.76342 -121.90165 16630 ft 331 kts 344°
2026-04-23 04:32 36.78594 -121.90739 16208 ft 330 kts 344°
2026-04-23 04:32 36.80810 -121.91319 15801 ft 329 kts 344°
2026-04-23 04:33 36.83045 -121.91920 15394 ft 328 kts 344°
2026-04-23 04:33 36.85273 -121.92530 14986 ft 327 kts 344°
2026-04-23 04:33 36.87492 -121.93145 14590 ft 326 kts 344°
2026-04-23 04:33 36.89705 -121.93762 14206 ft 326 kts 344°
2026-04-23 04:34 36.91921 -121.94381 13783 ft 326 kts 344°
2026-04-23 04:34 36.94135 -121.95001 13336 ft 325 kts 345°
2026-04-23 04:34 36.96325 -121.95671 12926 ft 323 kts 342°
2026-04-23 04:34 36.98470 -121.96485 12535 ft 321 kts 340°
2026-04-23 04:35 37.00593 -121.97337 12122 ft 320 kts 340°
2026-04-23 04:35 37.02714 -121.98191 11737 ft 319 kts 341°
2026-04-23 04:35 37.04803 -121.99026 11359 ft 318 kts 341°
2026-04-23 04:35 37.06910 -121.99861 10966 ft 317 kts 341°
2026-04-23 04:36 37.09012 -122.00690 10572 ft 317 kts 341°
2026-04-23 04:36 37.11108 -122.01512 10336 ft 311 kts 341°
2026-04-23 04:36 37.13146 -122.02310 10192 ft 303 kts 341°
2026-04-23 04:36 37.15136 -122.03091 10040 ft 295 kts 342°
2026-04-23 04:37 37.17080 -122.03852 9817 ft 290 kts 342°
2026-04-23 04:37 37.18988 -122.04599 9631 ft 284 kts 342°
2026-04-23 04:37 37.20858 -122.05331 9415 ft 278 kts 342°
2026-04-23 04:37 37.22685 -122.06048 9105 ft 275 kts 342°
2026-04-23 04:38 37.24501 -122.06760 8558 ft 282 kts 342°
2026-04-23 04:38 37.26403 -122.07507 8362 ft 275 kts 342°
2026-04-23 04:38 37.28183 -122.08208 8047 ft 267 kts 342°
2026-04-23 04:38 37.29945 -122.08902 7508 ft 262 kts 343°
2026-04-23 04:39 37.31677 -122.09581 7162 ft 260 kts 343°
2026-04-23 04:39 37.33413 -122.10264 6813 ft 262 kts 343°
2026-04-23 04:39 37.35160 -122.10953 6444 ft 264 kts 343°
2026-04-23 04:39 37.36915 -122.11645 6091 ft 264 kts 343°
2026-04-23 04:40 37.38649 -122.12297 5991 ft 255 kts 345°
2026-04-23 04:40 37.40375 -122.12882 6002 ft 260 kts 346°
2026-04-23 04:40 37.42114 -122.13469 5986 ft 256 kts 346°
2026-04-23 04:40 37.43822 -122.14051 5957 ft 252 kts 346°
2026-04-23 04:41 37.45498 -122.14621 5631 ft 245 kts 346°
2026-04-23 04:41 37.47150 -122.15166 4920 ft 245 kts 347°
2026-04-23 04:41 37.48753 -122.15692 4539 ft 230 kts 347°
2026-04-23 04:41 37.50251 -122.16185 4329 ft 217 kts 346°
2026-04-23 04:42 37.51659 -122.16650 4239 ft 207 kts 346°
2026-04-23 04:42 37.53010 -122.17133 4056 ft 197 kts 336°
2026-04-23 04:42 37.53991 -122.18262 3694 ft 193 kts 299°
2026-04-23 04:42 37.54595 -122.19757 3413 ft 193 kts 300°
2026-04-23 04:43 37.55239 -122.21244 3060 ft 191 kts 301°
2026-04-23 04:43 37.55862 -122.22693 2721 ft 184 kts 300°
2026-04-23 04:43 37.56445 -122.24068 2475 ft 170 kts 300°
2026-04-23 04:43 37.56978 -122.25333 2193 ft 156 kts 301°
2026-04-23 04:44 37.57464 -122.26478 1878 ft 141 kts 300°
2026-04-23 04:44 37.57934 -122.27582 1637 ft 146 kts 300°
2026-04-23 04:44 37.58413 -122.28717 1403 ft 147 kts 299°
2026-04-23 04:44 37.58896 -122.29868 1179 ft 149 kts 298°
2026-04-23 04:45 37.59378 -122.31009 951 ft 147 kts 298°
2026-04-23 04:45 37.59844 -122.32123 787 ft 140 kts 297°
2026-04-23 04:45 37.60287 -122.33198 531 ft 135 kts 297°
2026-04-23 04:45 37.60716 -122.34216 328 ft 128 kts 297°
2026-04-23 04:46 37.61127 -122.35186 148 ft 124 kts 297°
2026-04-23 04:46 37.61533 -122.36143 35 ft 122 kts 297°
2026-04-23 04:46 37.61890 -122.36999 31 ft 89 kts 298°
2026-04-23 04:46 37.62095 -122.37484 31 ft 36 kts 298°
2026-04-23 04:47 37.62194 -122.37719 31 ft 30 kts 296°
2026-04-23 04:47 37.62228 -122.37971 29 ft 30 kts 269°
2026-04-23 04:47 37.62223 -122.38233 25 ft 30 kts 266°